Columbia, MO

2:50 PM CST on December 04, 2016 (GMT -0600)
Columbia Regional

Weather History for KCOU - December, 2011

Change the Weather History Date:

Thursday, December 15, 2011

  Actual Average Record
Temperature  
Mean Temperature 43 °F 32 °F  
Max Temperature 58 °F 41 °F 70 °F (1948)
Min Temperature 28 °F 23 °F -15 °F (1901)
Degree Days  
Heating Degree Days 22 33  
Month to date heating degree days 418 459  
Since 1 July heating degree days 1293 1444  
Cooling Degree Days 0 0  
Month to date cooling degree days 0 0  
Year to date cooling degree days 1508 1249  
Moisture  
Dew Point 38 °F    
Average Humidity 85    
Maximum Humidity 100    
Minimum Humidity 69    
Precipitation  
Precipitation 0.00 in 0.07 in 1.49 in (1992)
Month to date precipitation 1.66 1.30  
Year to date precipitation 37.83 41.48  
Snow  
Snow 0.00 in 0.10 in 7.00 in (1911)
Month to date snowfall 1.3 1.8  
Since 1 July snowfall 1.3 2.7  
Snow Depth 0.00 in    
Sea Level Pressure  
Sea Level Pressure 30.06 in    
Wind  
Wind Speed 11 mph (WNW)    
Max Wind Speed 21 mph    
Max Gust Speed 26 mph    
Visibility 10 miles    
Events      
T = Trace of Precipitation, MM = Missing Value Source: NWS Daily Summary

Daily Weather History Graph

Daily Weather History Graph

Search for Another Location

Airport or City:

Trip Planner

Search our weather history database for the weather conditions in past years. The results will help you decide how hot, cold, wet, or windy it might be!

Date:

Astronomy

Dec. 15, 2011 Rise Set
Actual Time 7:19 AM CST 4:48 PM CST
Civil Twilight 6:49 AM CST 5:17 PM CST
Nautical Twilight 6:16 AM CST 5:51 PM CST
Astronomical Twilight 5:44 AM CST 6:23 PM CST
Moon 10:12 PM CST (12/15) 10:38 AM CST (12/15)
Length of Visible Light 10h 27m
Length of Day
9h 28m
Waning Gibbous, 74% of the Moon is Illuminated
Dec 15
Waning Gibbous
Dec 17
Last Quarter
Dec 24
New
Jan 1
First Quarter
Jan 9
Full

Hourly Weather History & Observations

Time (CST) Temp. Windchill Dew Point Humidity Pressure Visibility Wind Dir Wind Speed Gust Speed Precip Events Conditions
12:11 AM 57.2 °F - 57.2 °F 100% 29.79 in 10.0 mi SSW 9.2 mph - N/A   Overcast
12:54 AM 57.0 °F - 57.0 °F 100% 29.78 in 10.0 mi SSW 9.2 mph - N/A   Overcast
1:05 AM 57.2 °F - 55.4 °F 94% 29.79 in 10.0 mi SSW 9.2 mph - N/A   Overcast
1:34 AM 57.2 °F - 55.4 °F 94% 29.79 in 10.0 mi SW 9.2 mph - N/A   Overcast
1:45 AM 57.2 °F - 55.4 °F 94% 29.79 in 10.0 mi WSW 12.7 mph - N/A   Overcast
1:54 AM 57.9 °F - 55.9 °F 93% 29.79 in 10.0 mi West 12.7 mph - N/A   Overcast
2:10 AM 55.4 °F - 53.6 °F 94% 29.80 in 10.0 mi West 10.4 mph - N/A   Scattered Clouds
2:54 AM 53.1 °F - 51.1 °F 93% 29.82 in 10.0 mi West 8.1 mph - N/A   Partly Cloudy
3:38 AM 53.6 °F - 51.8 °F 94% 29.84 in 10.0 mi WNW 16.1 mph 23.0 mph 0.01 in   Mostly Cloudy
3:54 AM 53.1 °F - 50.0 °F 89% 29.85 in 10.0 mi WNW 19.6 mph 25.3 mph 0.01 in   Overcast
4:18 AM 51.8 °F - 48.2 °F 88% 29.87 in 10.0 mi WNW 15.0 mph 20.7 mph N/A   Overcast
4:51 AM 50.0 °F - 48.2 °F 94% 29.88 in 10.0 mi WNW 15.0 mph 20.7 mph N/A   Overcast
4:54 AM 50.0 °F - 48.0 °F 93% 29.89 in 10.0 mi WNW 11.5 mph - N/A   Overcast
5:17 AM 48.2 °F - 46.4 °F 93% 29.91 in 9.0 mi WNW 20.7 mph 26.5 mph N/A   Overcast
5:54 AM 44.6 °F 37.2 °F 44.6 °F 100% 29.95 in 7.0 mi WNW 17.3 mph 24.2 mph N/A   Overcast
6:33 AM 44.6 °F 38.1 °F 41.0 °F 87% 29.98 in 10.0 mi WNW 13.8 mph - 0.01 in   Overcast
6:54 AM 43.0 °F 35.1 °F 39.9 °F 89% 30.01 in 7.0 mi NW 17.3 mph - 0.01 in   Overcast
7:28 AM 39.2 °F 30.5 °F 33.8 °F 81% 30.02 in 8.0 mi NW 16.1 mph 26.5 mph 0.01 in   Overcast
7:54 AM 37.9 °F 30.0 °F 33.1 °F 83% 30.04 in 7.0 mi WNW 12.7 mph - 0.01 in   Scattered Clouds
8:22 AM 37.4 °F 30.3 °F 33.8 °F 87% 30.06 in 6.0 mi WNW 10.4 mph - 0.01 in   Mostly Cloudy
8:54 AM 37.9 °F 28.5 °F 33.1 °F 83% 30.09 in 7.0 mi WNW 17.3 mph 20.7 mph 0.02 in   Overcast
9:54 AM 37.0 °F 29.3 °F 32.0 °F 82% 30.14 in 10.0 mi WNW 11.5 mph 19.6 mph N/A   Overcast
10:54 AM 37.0 °F 28.9 °F 30.9 °F 79% 30.15 in 10.0 mi NW 12.7 mph - N/A   Overcast
11:54 AM 37.0 °F 29.3 °F 30.0 °F 76% 30.18 in 10.0 mi WNW 11.5 mph 20.7 mph N/A   Overcast
12:54 PM 36.0 °F 26.3 °F 28.0 °F 73% 30.19 in 10.0 mi WNW 16.1 mph - N/A   Overcast
1:54 PM 34.0 °F 24.6 °F 26.1 °F 73% 30.22 in 10.0 mi WNW 13.8 mph 21.9 mph N/A   Overcast
2:54 PM 34.0 °F 26.6 °F 26.1 °F 73% 30.22 in 10.0 mi NW 9.2 mph - N/A   Overcast
3:54 PM 34.0 °F 24.2 °F 26.1 °F 73% 30.24 in 10.0 mi NW 15.0 mph - N/A   Overcast
4:54 PM 34.0 °F 25.5 °F 25.0 °F 70% 30.28 in 10.0 mi NW 11.5 mph - N/A   Overcast
5:54 PM 33.8 °F 26.4 °F 24.8 °F 70% 30.28 in 10.0 mi NW 9.2 mph - N/A   Mostly Cloudy
6:11 PM 33.8 °F 27.0 °F 24.8 °F 70% 30.28 in 10.0 mi NW 8.1 mph - N/A   Scattered Clouds
6:54 PM 32.0 °F 26.4 °F 26.1 °F 79% 30.32 in 10.0 mi NNW 5.8 mph - N/A   Clear
7:54 PM 32.0 °F 23.6 °F 25.0 °F 75% 30.33 in 10.0 mi NNW 10.4 mph - N/A   Clear
8:54 PM 30.9 °F 26.2 °F 25.0 °F 79% 30.36 in 10.0 mi NNW 4.6 mph - N/A   Clear
9:54 PM 30.0 °F 25.2 °F 24.1 °F 79% 30.36 in 10.0 mi NNW 4.6 mph - N/A   Clear
10:54 PM 28.9 °F 23.9 °F 23.0 °F 78% 30.37 in 10.0 mi NNW 4.6 mph - 0.01 in   Clear
11:54 PM 28.9 °F - 23.0 °F 78% 30.38 in 10.0 mi Calm Calm - N/A   Clear